sat.trackr.live / text

‹ back to catalog

STARLINK-11711 [DTC]

NORAD 64378 · 2025-127J

PAYLOAD ACTIVE UNKNOWN

§ Identity

Operator
Country
US
Launch date
2025-06-13
Launch site
AFETR
Launch vehicle
Mass (kg)
RCS (m²)

Purposes: comms

External: N2YO · Heavens-Above · Gunter

§ Orbital elements

Epoch: 2026-09-20T22:40:33.627360Z

Period
91.67 min
Inclination
43.0022°
Eccentricity
0.0001369
Mean motion
15.70912366 rev/d
Perigee alt
355.4 km
Apogee alt
357.2 km
Semi-major
6,734.4 km
B*
1.0262e-3
RAAN
347.3593°
Arg perigee
287.0852°
Mean anomaly
72.9866°
Rev number
7,432

§ Raw data

STARLINK-11711 [DTC]1 64378U 25127J   26263.94483365  .00133778  00000+0  10262-2 0  99972 64378  43.0022 347.3593 0001369 287.0852  72.9866 15.70912366 74320

JSON: /api/v1/satellites/64378 · /tle

For live sub-satellite position, see the globe view (requires WebGL).

§ Visibility from observer

Set your observer location to see the next 7 days of passes ≥ 10°. The values pass through the URL so the page stays shareable.

No JS? Fill the form by hand. The geolocation button needs JavaScript.